Vertical_Velocity
0 -4 4 -5 2 -0 -6 -4 -7 -4 7 -3 -9 3 -6 0 -1 -2 -10 -1 -16 -11 0 -0 1 -0 -0 1 2 -4 2 -2 -6 -6 -2 2 -1 3 -1 2 3 5 3 1 -2 -3 1 -1 2 5 5 -0 -2 1
-7 4 1 -0 -1 -7 -7 -5 1 -3 0 -5 3 -6 -3 -5 -6 7 -19 -3 -9 -22 -5 1 1 5 3 1 1 1 0 -0 2 -0 -1 -1 -1 -2 1 2 1 1 5 5 5 6 -0 -2 0 1 -2 -2 -4 -3
0 0 3 -6 -4 -7 -9 3 -2 -1 -3 1 -6 -4 -3 -8 -1 1 -6 -2 -2 -5 2 -9 1 1 3 2 2 2 2 2 -0 -1 -1 0 -4 1 1 3 1 2 -1 2 4 3 -2 -2 -3 -3 -3 -3 0 -0
8 -0 -11 -3 -1 -6 0 -2 -2 4 -3 -7 -2 -4 -7 2 1 1 -6 -3 -2 -3 -5 0 3 -3 2 3 -1 0 1 -0 -1 0 -1 -0 -2 1 1 3 2 3 2 1 -2 -2 -1 -2 -3 1 -0 -0 -1 -1
-7 -6 -3 -4 -0 -0 -4 3 5 -4 -5 1 -1 -3 4 2 1 -1 -2 -4 -0 2 -3 -1 1 2 -1 1 2 2 3 1 -1 -3 -3 1 -0 1 -0 2 -0 -1 0 2 -0 -1 -0 -5 -1 -0 -1 -0 1 1
-1 -5 -12 6 1 -7 6 5 -7 -7 1 -3 -3 2 1 2 -1 -1 0 1 -2 -1 -2 1 0 0 3 2 7 3 -1 -5 -4 -2 0 -0 -1 -1 -1 0 -4 -0 -1 1 -8 2 -0 1 -2 2 -3 1 0 -1
-7 -5 0 5 -9 8 6 -8 -5 1 -5 -2 -1 -0 3 0 3 -5 -3 3 -0 -1 -1 -0 -0 -4 -4 -3 -3 -2 -2 -3 -2 -2 -1 -0 1 1 -0 0 -4 3 1 1 2 2 -6 0 -6 -1 -1 0 0 -1
-6 7 0 -2 10 1 -7 0 2 -2 0 1 1 1 2 -0 -1 0 -2 -3 -1 -1 -1 -2 -3 -1 -8 -4 -2 -3 -2 -1 -3 -0 -1 0 -0 -0 -1 -1 -3 1 -1 -0 1 0 -2 1 -1 1 2 1 -2 -3
7 -1 5 6 -6 -3 1 -0 0 1 2 3 3 0 -1 -2 -1 -1 -1 -3 1 -4 -6 -4 3 -0 -3 0 -0 0 -1 -1 -1 -0 -0 1 -0 1 4 1 0 3 8 2 2 1 2 -1 -2 -0 2 2 -0 -2
5 4 -6 -7 -0 0 1 2 0 -0 1 2 2 1 0 -1 1 -1 -1 1 -6 -5 -6 -4 -1 1 -1 -2 -1 -0 -1 0 0 3 -2 1 1 -3 2 4 -0 1 4 3 -2 -8 2 0 3 -0 0 1 0 -1
-3 -6 -3 -1 -0 1 -0 -3 -1 1 -1 -1 1 -2 2 2 -0 -1 -4 -7 -2 -3 -1 1 -0 1 -1 2 1 -0 1 0 -0 3 3 0 0 -1 0 3 -1 -3 0 2 5 3 3 6 -0 -2 -4 0 -0 -0
-3 -3 1 2 -3 -4 -1 0 0 -2 -2 -2 -1 -1 -1 -4 -5 -11 -0 -4 -4 2 -1 0 2 0 0 -0 1 0 1 0 1 -0 2 -0 -0 3 -1 2 -5 -2 -2 -4 5 1 1 1 3 1 -1 -1 4 3
0 0 -2 -2 -1 -2 -1 -2 -2 -1 0 -0 -1 -5 -9 2 -15 -4 -1 -6 -3 -0 0 -4 -5 0 -1 -0 -0 1 0 1 -0 -0 1 -0 1 -1 -1 -2 -4 0 0 1 -3 1 1 -1 2 1 -5 3 -1 -1
1 -2 -2 -1 -1 -2 -3 -1 0 -0 -2 -5 -4 -7 -5 -3 -1 -1 -1 -0 -0 -0 1 0 -0 1 -0 -1 -0 2 2 2 -3 -2 1 -0 3 -0 1 1 -1 -3 1 -1 0 -0 0 0 -3 2 2 2 0 -2
-2 -2 -2 -1 -2 -1 -1 0 -0 -2 -2 -7 -4 -1 -1 1 0 -0 1 -0 1 0 2 0 -0 0 -1 0 0 -1 -7 -1 2 1 0 -1 0 2 -2 -1 -1 -2 -0 -0 -0 -1 -0 1 1 -0 4 1 3 2
-3 -4 -2 -2 -1 -1 -2 -2 -5 -12 -6 -2 -3 -2 -1 -1 -1 -1 -0 -0 3 3 1 0 0 -1 1 1 -3 1 2 0 -1 2 -2 -1 -3 -3 -1 -0 1 2 1 -1 2 3 2 2 2 1 -2 0 -1 2
-2 -4 -2 -1 -0 -1 -2 -5 -8 -9 -3 -3 -1 -1 -1 -1 -0 -1 2 0 2 1 1 0 -4 4 -1 -2 -2 1 2 2 1 -8 -1 3 2 -1 -0 3 0 0 -0 1 0 0 1 1 -1 1 -1 -2 1 2
-0 0 -0 -1 -1 -0 -3 -6 -5 -2 -3 -1 0 0 0 -1 -0 -2 1 -1 -1 -0 -1 0 -1 -2 1 1 -3 -3 -3 -1 -1 -0 -2 -2 0 0 4 3 0 -0 -1 0 1 -1 -1 -0 -0 -2 -1 -2 -5 -2
-1 0 -0 -0 -0 0 -1 -3 -1 -2 1 0 1 -0 -0 -1 0 0 -2 -1 -0 -1 -1 0 -2 1 1 0 3 -3 -1 3 -2 -6 -2 -0 0 -2 -2 0 -0 0 -1 -1 -0 0 1 6 4 2 1 2 11 2
1 -1 -1 -1 -0 -0 -2 -2 -1 1 0 -0 0 -0 -0 -0 1 0 0 -4 -2 0 -3 -3 1 1 6 -1 5 2 1 2 4 -5 -5 -1 2 2 1 0 -0 1 -1 -3 -4 1 1 -8 0 -1 2 3 -2 -0
-1 -2 -2 1 -1 -1 -2 -1 -1 -1 -0 -0 1 0 0 1 0 -0 -2 -1 -6 -3 -2 -2 2 0 5 5 6 4 2 5 4 9 2 -8 -2 3 -1 -0 -1 -1 2 0 -0 -5 -1 -0 -4 2 -3 -1 1 -1
-2 -1 0 -1 -2 -1 -2 -1 -1 -1 0 -0 1 0 -0 -0 0 -0 0 -4 0 1 3 5 0 -1 -2 -2 -5 1 3 1 2 -1 -1 -1 -9 -4 -2 5 1 -3 0 1 2 -1 0 -0 4 4 -2 2 -3 -1
-0 -1 -1 -1 -2 -1 -0 0 0 -0 -0 -0 0 -0 -1 -0 0 1 -1 -1 2 6 3 5 4 4 2 1 -1 2 2 -1 -0 2 -1 -1 1 3 -3 -3 1 -1 0 -1 6 4 1 1 -5 3 -4 -2 -1 -2
0 -3 -3 -4 -1 -1 0 -1 -0 -1 0 -2 -2 -1 -1 -1 0 0 -1 -2 4 -0 -2 -2 -2 -8 -1 3 -0 -2 -2 1 -1 -0 3 -1 -1 -3 5 5 3 5 6 -2 2 4 -1 -2 3 -2 0 2 -1 3
-3 -6 -2 -1 -0 -2 -4 -3 -1 -4 -0 0 -1 -2 -1 -0 -2 -1 0 -5 -3 -1 0 1 0 1 1 -2 -1 1 4 -0 1 -2 7 9 6 6 1 2 0 1 1 -2 9 2 -3 0 1 1 1 2 2 1
-9 -1 -3 2 0 -3 1 -1 -1 -0 -0 -1 -0 0 -0 -1 -4 -1 -0 3 2 -2 -4 -4 -2 -5 3 9 0 -2 -2 1 -0 -3 0 3 5 5 0 -7 -14 -17 2 21 3 -5 1 1 1 2 1 -2 1 -0
-4 -1 1 -1 -1 -0 -0 -0 -0 0 -1 -0 -0 -2 -2 -3 -1 -3 6 4 2 -1 2 7 2 2 1 -2 2 2 0 3 5 3 -1 -2 -2 2 4 0 -3 -4 20 1 0 7 1 -3 4 6 2 2 2 2
-1 0 -1 -0 -0 0 -0 -0 -0 -1 0 0 -0 -2 -3 -3 -3 3 2 2 2 4 4 4 5 3 -0 2 4 -1 1 2 -4 -7 -5 -3 1 4 2 3 7 8 4 3 3 2 -1 3 12 -2 -1 0 -1 3
-0 -1 -1 -0 -0 -0 -1 -0 -0 -0 -0 -1 -0 -1 -1 3 0 -0 0 -2 -2 0 -3 -5 -3 -2 3 2 1 1 -0 -2 -5 -7 -5 -7 -18 -9 4 5 5 4 5 3 7 4 2 9 0 4 0 3 2 -1
-0 -0 -0 -0 -1 -0 -0 -0 0 0 -0 -1 -0 -1 -2 0 3 2 -1 1 -2 -3 1 5 3 -2 -6 -8 -8 -3 5 2 4 9 -1 -5 -7 -4 -3 5 1 2 -1 -2 -1 0 4 2 1 -1 -0 -2 -2 6
-0 -0 0 -0 -0 1 -0 -0 -0 -0 -0 -0 0 -1 -1 -1 1 -0 -1 0 -2 -3 -3 -4 -1 1 -1 -1 -2 -6 -7 9 9 11 8 4 1 2 7 0 1 1 2 3 1 0 -1 -1 1 -0 -2 1 4 -0
-0 -0 -0 -0 0 -0 0 -0 0 1 1 0 0 -0 -1 -1 -1 -0 -3 -1 -0 -3 4 3 -4 -6 3 3 4 6 10 7 1 -7 -3 1 2 7 -0 3 1 3 3 1 -1 -1 -1 3 -0 1 2 -1 -1 2
-0 0 -0 -0 0 0 -0 -0 -0 -0 0 -0 -0 -1 -1 -1 -2 -3 3 3 3 0 -2 1 4 5 4 2 0 -1 1 1 2 9 4 6 5 5 1 -1 -2 1 -1 -1 -1 -0 -2 -1 -2 -0 -1 3 -0 2
Height
1521 1523 1520 1521 1519 1519 1519 1519 1520 1518 1516 1508 1508 1503 1500 1499 1497 1495 1488 1486 1483 1491 1501 1499 1495 1492 1488 1486 1481 1472 1466 1464 1462 1462 1466 1479 1478 1493 1491 1506 1501 1491 1483 1478 1464 1468 1481 1497 1493 1485 1493 1494 1496 1498
1524 1525 1523 1522 1522 1523 1525 1524 1523 1521 1519 1515 1510 1509 1507 1503 1503 1501 1494 1494 1491 1491 1504 1502 1497 1494 1491 1488 1484 1481 1483 1481 1480 1476 1482 1485 1488 1493 1510 1485 1506 1492 1507 1496 1497 1491 1499 1497 1495 1491 1491 1494 1495 1496
1525 1526 1525 1529 1526 1526 1530 1527 1525 1524 1521 1518 1514 1513 1511 1509 1508 1503 1499 1498 1496 1498 1503 1502 1502 1500 1495 1490 1487 1487 1484 1483 1482 1482 1487 1494 1501 1506 1495 1500 1504 1508 1512 1503 1503 1500 1497 1495 1494 1493 1493 1493 1493 1491
1529 1527 1530 1533 1530 1530 1531 1529 1527 1526 1524 1522 1519 1516 1514 1512 1509 1507 1503 1501 1500 1500 1504 1510 1507 1504 1500 1496 1492 1489 1488 1487 1485 1485 1489 1496 1499 1510 1506 1511 1507 1509 1509 1509 1498 1496 1494 1492 1491 1492 1491 1489 1487 1485
1532 1535 1535 1537 1536 1534 1531 1529 1527 1527 1527 1525 1522 1520 1517 1513 1509 1507 1506 1504 1502 1504 1505 1508 1508 1507 1504 1502 1498 1495 1492 1490 1488 1490 1496 1505 1510 1510 1514 1513 1504 1508 1505 1502 1494 1496 1496 1491 1489 1488 1486 1484 1482 1480
1536 1539 1540 1539 1537 1535 1533 1529 1528 1529 1528 1525 1523 1521 1518 1515 1511 1508 1507 1506 1504 1504 1506 1507 1509 1508 1506 1504 1503 1499 1495 1494 1493 1498 1506 1509 1511 1511 1507 1504 1506 1503 1501 1500 1497 1493 1491 1487 1484 1482 1480 1479 1477 1474
1539 1543 1542 1538 1538 1536 1531 1529 1529 1528 1526 1524 1522 1520 1518 1515 1514 1512 1514 1510 1505 1505 1506 1508 1510 1509 1507 1504 1503 1502 1501 1500 1499 1503 1508 1510 1511 1512 1510 1504 1504 1501 1497 1494 1492 1490 1485 1481 1480 1478 1475 1473 1471 1468
1544 1543 1539 1538 1536 1532 1531 1530 1527 1525 1524 1523 1521 1519 1517 1516 1515 1513 1512 1511 1507 1507 1508 1514 1515 1512 1510 1508 1506 1505 1504 1504 1505 1508 1511 1512 1512 1511 1508 1507 1504 1499 1495 1490 1488 1485 1481 1478 1474 1471 1469 1466 1463 1459
1543 1540 1539 1536 1533 1532 1530 1527 1524 1523 1522 1522 1521 1519 1518 1517 1515 1516 1514 1513 1512 1513 1517 1528 1532 1521 1517 1515 1513 1510 1508 1508 1511 1512 1515 1516 1509 1509 1512 1507 1502 1498 1494 1488 1484 1480 1476 1472 1468 1465 1463 1460 1455 1451
1542 1539 1536 1536 1533 1528 1525 1524 1523 1522 1521 1521 1520 1520 1520 1520 1517 1517 1516 1516 1516 1520 1526 1535 1536 1532 1529 1520 1516 1515 1512 1514 1511 1519 1516 1514 1509 1511 1509 1505 1501 1495 1489 1484 1478 1473 1471 1466 1463 1459 1456 1453 1449 1445
1542 1540 1539 1536 1531 1525 1522 1523 1523 1523 1522 1522 1522 1523 1523 1521 1521 1521 1524 1527 1530 1533 1536 1537 1537 1536 1530 1529 1525 1524 1521 1519 1510 1518 1515 1512 1508 1509 1505 1501 1496 1491 1486 1481 1476 1471 1466 1462 1456 1452 1448 1445 1442 1438
1544 1541 1539 1536 1531 1526 1524 1524 1525 1524 1523 1523 1524 1525 1526 1528 1530 1534 1544 1542 1542 1543 1541 1539 1538 1535 1532 1531 1530 1527 1524 1522 1511 1522 1516 1505 1509 1507 1502 1497 1492 1487 1481 1475 1471 1465 1460 1456 1452 1446 1441 1437 1434 1430
1545 1541 1539 1537 1534 1531 1528 1527 1526 1525 1525 1525 1526 1530 1536 1544 1551 1557 1562 1553 1550 1547 1544 1542 1540 1536 1534 1533 1532 1531 1521 1519 1524 1516 1510 1511 1508 1505 1500 1493 1487 1483 1477 1471 1465 1460 1455 1449 1445 1441 1434 1430 1426 1421
1546 1544 1542 1540 1538 1536 1532 1529 1527 1527 1526 1529 1536 1548 1554 1563 1565 1565 1563 1559 1555 1549 1546 1542 1540 1538 1536 1535 1534 1527 1526 1527 1511 1512 1511 1510 1508 1502 1497 1491 1484 1477 1471 1466 1459 1453 1448 1443 1437 1433 1428 1423 1418 1413
1548 1546 1545 1543 1542 1540 1538 1535 1532 1529 1530 1537 1545 1562 1566 1567 1566 1564 1561 1557 1554 1549 1544 1542 1540 1540 1537 1536 1534 1530 1525 1523 1528 1521 1517 1513 1508 1502 1494 1488 1481 1474 1467 1460 1454 1448 1442 1436 1431 1425 1421 1416 1411 1406
1550 1549 1548 1546 1545 1543 1542 1540 1538 1536 1540 1548 1556 1563 1567 1567 1567 1564 1560 1557 1552 1547 1544 1543 1542 1538 1542 1544 1535 1541 1537 1529 1528 1526 1520 1513 1506 1499 1492 1485 1479 1472 1465 1457 1451 1444 1438 1432 1426 1420 1414 1409 1405 1400
1552 1552 1551 1550 1548 1548 1546 1543 1543 1546 1551 1559 1565 1566 1567 1568 1568 1566 1562 1558 1553 1548 1548 1546 1547 1550 1552 1544 1542 1543 1542 1540 1534 1525 1519 1513 1505 1496 1489 1483 1476 1468 1461 1454 1447 1441 1434 1428 1422 1416 1410 1404 1399 1394
1552 1552 1552 1551 1551 1550 1548 1547 1550 1554 1559 1564 1565 1567 1567 1568 1568 1568 1565 1561 1557 1553 1553 1556 1555 1556 1555 1553 1548 1545 1541 1537 1531 1524 1515 1508 1501 1494 1488 1480 1472 1465 1458 1451 1445 1438 1431 1425 1419 1413 1407 1400 1394 1388
1553 1552 1552 1551 1551 1551 1551 1553 1554 1557 1562 1564 1566 1567 1568 1569 1569 1569 1568 1564 1561 1558 1558 1558 1558 1560 1560 1557 1552 1545 1539 1533 1524 1516 1510 1504 1498 1491 1484 1477 1469 1462 1455 1448 1442 1435 1430 1425 1418 1411 1404 1397 1391 1385
1554 1554 1553 1552 1551 1551 1553 1557 1558 1559 1563 1566 1567 1567 1569 1570 1571 1570 1569 1568 1563 1562 1564 1566 1567 1565 1560 1554 1549 1543 1537 1531 1523 1512 1505 1499 1494 1487 1480 1473 1466 1459 1452 1446 1440 1435 1427 1420 1414 1407 1402 1396 1388 1382
1555 1555 1553 1553 1553 1554 1557 1559 1561 1563 1565 1566 1568 1569 1570 1571 1572 1572 1571 1569 1568 1572 1571 1570 1566 1561 1556 1550 1545 1539 1533 1528 1522 1516 1506 1495 1489 1483 1475 1469 1463 1456 1449 1443 1436 1429 1424 1418 1410 1405 1398 1392 1387 1380
1556 1556 1555 1555 1555 1558 1561 1564 1566 1567 1567 1568 1569 1570 1571 1572 1573 1573 1573 1573 1575 1576 1573 1568 1563 1557 1551 1547 1541 1535 1530 1524 1517 1510 1503 1496 1485 1477 1471 1465 1458 1451 1446 1440 1434 1428 1421 1415 1409 1402 1396 1388 1382 1375
1557 1557 1557 1558 1559 1562 1569 1567 1567 1568 1568 1571 1571 1572 1574 1575 1575 1576 1577 1579 1579 1576 1571 1566 1560 1555 1549 1543 1537 1532 1526 1518 1511 1506 1499 1492 1485 1478 1471 1464 1457 1449 1441 1436 1432 1425 1418 1411 1403 1399 1391 1384 1376 1370
1559 1559 1561 1562 1565 1569 1570 1570 1572 1572 1573 1574 1575 1578 1578 1577 1577 1577 1580 1579 1578 1573 1568 1563 1557 1550 1545 1541 1535 1528 1521 1516 1510 1503 1496 1487 1480 1472 1466 1459 1452 1447 1441 1433 1427 1420 1413 1405 1399 1393 1386 1380 1373 1368
1563 1572 1572 1571 1574 1573 1575 1576 1577 1576 1583 1582 1580 1581 1581 1580 1580 1582 1583 1580 1576 1571 1566 1561 1555 1549 1543 1537 1531 1526 1521 1513 1504 1497 1492 1485 1476 1468 1462 1456 1450 1443 1437 1428 1422 1415 1407 1401 1395 1389 1382 1377 1371 1365
1572 1580 1580 1580 1582 1580 1583 1585 1586 1587 1585 1585 1585 1584 1583 1583 1587 1588 1583 1581 1577 1572 1567 1560 1554 1545 1540 1537 1529 1522 1516 1511 1505 1498 1492 1484 1477 1468 1459 1452 1442 1434 1432 1428 1420 1409 1402 1396 1389 1384 1378 1372 1366 1360
1583 1586 1587 1587 1587 1587 1587 1588 1588 1588 1589 1590 1587 1585 1586 1596 1597 1591 1586 1582 1578 1573 1568 1563 1555 1548 1542 1535 1529 1524 1517 1510 1506 1499 1490 1483 1476 1468 1461 1452 1441 1434 1430 1424 1414 1407 1400 1392 1386 1380 1374 1369 1363 1357
1588 1588 1589 1590 1588 1588 1588 1588 1589 1591 1590 1591 1591 1592 1594 1596 1597 1594 1588 1582 1577 1572 1567 1561 1554 1548 1541 1535 1529 1520 1512 1506 1498 1491 1485 1478 1470 1463 1456 1449 1442 1437 1429 1419 1412 1404 1397 1391 1385 1378 1371 1365 1359 1355
1591 1591 1590 1590 1589 1590 1590 1591 1591 1591 1592 1591 1591 1591 1592 1592 1592 1589 1585 1580 1576 1571 1564 1557 1550 1544 1538 1532 1526 1519 1511 1501 1490 1479 1471 1465 1457 1452 1448 1443 1437 1430 1420 1412 1406 1400 1394 1390 1383 1376 1369 1363 1357 1352
1592 1591 1591 1590 1590 1592 1593 1593 1592 1592 1592 1592 1592 1592 1592 1591 1590 1588 1585 1579 1574 1569 1563 1557 1549 1542 1535 1526 1519 1514 1510 1502 1496 1489 1479 1470 1463 1455 1448 1441 1434 1425 1417 1409 1401 1394 1388 1383 1376 1371 1365 1359 1354 1350
1592 1592 1591 1591 1592 1593 1593 1593 1593 1592 1592 1592 1592 1593 1592 1590 1589 1587 1584 1578 1574 1569 1561 1554 1548 1542 1535 1528 1520 1510 1502 1500 1495 1489 1481 1473 1466 1457 1450 1441 1431 1422 1414 1407 1400 1393 1386 1379 1374 1368 1362 1357 1353 1348
1593 1592 1592 1591 1593 1593 1592 1592 1592 1591 1591 1592 1592 1592 1592 1590 1589 1587 1583 1577 1573 1566 1561 1555 1548 1542 1538 1532 1526 1519 1511 1503 1495 1486 1477 1471 1465 1458 1448 1438 1429 1421 1414 1407 1399 1393 1386 1381 1374 1369 1363 1357 1351 1347
1592 1592 1592 1592 1592 1592 1592 1592 1591 1591 1591 1592 1592 1592 1592 1591 1589 1587 1582 1576 1572 1566 1560 1554 1549 1544 1538 1531 1524 1518 1512 1504 1495 1487 1479 1472 1466 1457 1446 1437 1429 1421 1412 1405 1399 1394 1387 1381 1375 1369 1363 1357 1352 1346